Location: Choisy
(48.7685°N, 2.4187°E)
Time: 09:29:35
(UTC+00:00)

ATLAS 3B R/B - Pass Details

Date: 07 December 2023
Orbit: 947 x 1247 km, 63.8° (Epoch: 10 February)

Event Time Altitude Azimuth Distance (km) Brightness Sun altitude
Exits shadow 03:25:58 46° 45° (NE) 1,526 3.6 -38.9°
Drops below altitude 10° 03:31:00 10° 42° (NE) 3,140 5.6 -38.1°
Sets 03:33:49 0° 42° (NE) 4,138 6.4 -37.6°
